2024/01/24 00:00:00, 0.1,-1.8
2024/01/24 00:10:00, 0.1,-1.4
2024/01/24 00:20:00, 0.1,-1.8
2024/01/24 00:30:00, 0.2,-1.8
2024/01/24 00:40:00, 0.2,-1.9
2024/01/24 00:50:00, 0.2,-1.6
2024/01/24 01:00:00, 0.1,-1.9
2024/01/24 01:10:00, 0.1,-2.2
2024/01/24 01:20:00, 0.2,-2.3
2024/01/24 01:30:00, 0.1,-2.2
2024/01/24 01:40:00, 0.1,-2.3
2024/01/24 01:50:00, 0.1,-2.1
2024/01/24 02:00:00, 0.1,-2.0
2024/01/24 02:10:00, 0.1,-2.1
2024/01/24 02:20:00, 0.1,-2.2
2024/01/24 02:30:00, 0.2,-1.8
2024/01/24 02:40:00, 0.2,-1.8
2024/01/24 02:50:00, 0.2,-2.0
2024/01/24 03:00:00, 0.2,-1.9
2024/01/24 03:10:00, 0.1,-1.8
2024/01/24 03:20:00, 0.1,-1.8
2024/01/24 03:30:00, 0.2,-1.9
2024/01/24 03:40:00, 0.2,-2.1
2024/01/24 03:50:00, 0.1,-2.2
2024/01/24 04:00:00, 0.1,-2.3
2024/01/24 04:10:00, 0.1,-2.1
2024/01/24 04:20:00, 0.1,-2.2
2024/01/24 04:30:00, 0.1,-2.0
2024/01/24 04:40:00, 0.1,-2.2
2024/01/24 04:50:00, 0.1,-2.0
2024/01/24 05:00:00, 0.1,-2.1
2024/01/24 05:10:00, 0.1,-2.4
2024/01/24 05:20:00, 0.1,-2.6
2024/01/24 05:30:00, 0.2,-2.8
2024/01/24 05:40:00, 0.3,-2.9
2024/01/24 05:50:00, 0.3,-2.8
2024/01/24 06:00:00, 0.2,-2.7
2024/01/24 06:10:00, 0.3,-2.8
2024/01/24 06:20:00, 0.4,-2.9
2024/01/24 06:30:00, 0.6,-3.0
2024/01/24 06:40:00, 0.6,-3.1
2024/01/24 06:50:00, 0.8,-3.2
2024/01/24 07:00:00, 0.9,-3.1
2024/01/24 07:10:00, 1.0,-3.2
2024/01/24 07:20:00, 1.1,-2.9
2024/01/24 07:30:00, 1.4,-3.0
2024/01/24 07:40:00, 1.6,-2.9
2024/01/24 07:50:00, 1.6,-3.1
2024/01/24 08:00:00, 1.7,-2.9
2024/01/24 08:10:00, 2.2,-3.0
2024/01/24 08:20:00, 2.2,-2.9
2024/01/24 08:30:00, 2.3,-2.7
2024/01/24 08:40:00, 2.7,-2.8
2024/01/24 08:50:00, 3.2,-3.0
2024/01/24 09:00:00, 3.6,-3.1
2024/01/24 09:10:00, 4.6,-3.0
2024/01/24 09:20:00, 5.6,-3.3
2024/01/24 09:30:00, 6.5,-3.1
2024/01/24 09:40:00, 7.3,-3.0
2024/01/24 09:50:00, 7.9,-3.0
2024/01/24 10:00:00, 8.4,-2.9
2024/01/24 10:10:00, 9.5,-2.6
2024/01/24 10:20:00, 9.6,-2.2
2024/01/24 10:30:00, 9.6,-2.2
2024/01/24 10:40:00,10.0,-2.5
2024/01/24 10:50:00,10.6,-2.3
2024/01/24 11:00:00,10.8,-2.5
2024/01/24 11:10:00,11.0,-2.2
2024/01/24 11:20:00,11.7,-1.9
2024/01/24 11:30:00,11.9,-1.9
2024/01/24 11:40:00,12.3,-2.2
2024/01/24 11:50:00,13.0,-2.2
2024/01/24 12:00:00,13.8,-1.8
2024/01/24 12:10:00,14.8,-2.0
2024/01/24 12:20:00,15.4,-2.2
2024/01/24 12:30:00,16.3,-2.2
2024/01/24 12:40:00,17.0,-2.3
2024/01/24 12:50:00,17.4,-1.8
2024/01/24 13:00:00,17.8,-1.6
2024/01/24 13:10:00,18.1,-1.8
2024/01/24 13:20:00,18.2,-1.6
2024/01/24 13:30:00,18.3,-2.1
2024/01/24 13:40:00,18.7,-2.2
2024/01/24 13:50:00,19.6,-2.2
2024/01/24 14:00:00,20.4,-2.2
2024/01/24 14:10:00,20.9,-2.5
2024/01/24 14:20:00,21.6,-2.5
2024/01/24 14:30:00,22.9,-2.8
2024/01/24 14:40:00,24.4,-2.6
2024/01/24 14:50:00,25.6,-2.4
2024/01/24 15:00:00,26.5,-2.7
2024/01/24 15:10:00,27.5,-2.5
2024/01/24 15:20:00,28.6,-2.5
2024/01/24 15:30:00,29.7,-2.6
2024/01/24 15:40:00,31.3,-2.6
2024/01/24 15:50:00,33.0,-2.7
2024/01/24 16:00:00,34.5,-2.7
2024/01/24 16:10:00,35.9,-2.7
2024/01/24 16:20:00,37.2,-2.5
2024/01/24 16:30:00,38.1,-2.3
2024/01/24 16:40:00,38.5,-2.5
2024/01/24 16:50:00,38.7,-2.1
2024/01/24 17:00:00,39.0,-2.5
2024/01/24 17:10:00,39.5,-2.4
2024/01/24 17:20:00,40.1,-2.3
2024/01/24 17:30:00,41.0,-2.3
2024/01/24 17:40:00,41.3,-2.5
2024/01/24 17:50:00,42.4,-2.5
2024/01/24 18:00:00,43.0,-2.3
2024/01/24 18:10:00,43.1,-2.2
2024/01/24 18:20:00,43.2,-2.2
2024/01/24 18:30:00,43.5,-2.2
2024/01/24 18:40:00,44.0,-2.2
2024/01/24 18:50:00,44.5,-2.3
2024/01/24 19:00:00,45.1,-2.2
2024/01/24 19:10:00,45.4,-2.2
2024/01/24 19:20:00,45.5,-2.2
2024/01/24 19:30:00,45.9,-2.2
2024/01/24 19:40:00,46.1,-2.1
2024/01/24 19:50:00,46.4,-2.2
2024/01/24 20:00:00,46.9,-2.2
2024/01/24 20:10:00,47.0,-2.2
2024/01/24 20:20:00,47.2,-2.2
2024/01/24 20:30:00,47.4,-2.0
2024/01/24 20:40:00,47.3,-1.8
2024/01/24 20:50:00,47.3,-1.1
2024/01/24 21:00:00,47.9,-1.7
2024/01/24 21:10:00,48.1,-1.8
2024/01/24 21:20:00,48.2,-1.6
2024/01/24 21:30:00,48.2,-1.5
2024/01/24 21:40:00,48.2,-1.7
2024/01/24 21:50:00,48.3,-1.7
2024/01/24 22:00:00,48.5,-1.7
2024/01/24 22:10:00,48.8,-1.6
2024/01/24 22:20:00,48.7,-1.5
2024/01/24 22:30:00,48.9,-1.8
2024/01/24 22:40:00,49.0,-1.4
2024/01/24 22:50:00,48.8,-1.6
2024/01/24 23:00:00,48.9,-1.5
2024/01/24 23:10:00,48.9,-1.7
2024/01/24 23:20:00,49.2,-1.4
2024/01/24 23:30:00,49.3,-1.5
2024/01/24 23:40:00,49.3,-1.6
2024/01/24 23:50:00,49.2,-1.6
